TimeEST,TemperatureF,Dew PointF,Humidity,Sea Level PressureIn,VisibilityMPH,Wind Direction,Wind SpeedMPH,Gust SpeedMPH,PrecipitationIn,Events,Conditions,WindDirDegrees,DateUTC
12:53 AM,43.0,33.1,68,29.81,-9999.0,Calm,Calm,-,N/A,,Overcast,0,2013-02-27 05:53:00
1:53 AM,43.0,33.1,68,29.81,-9999.0,Variable,4.6,-,N/A,,Overcast,0,2013-02-27 06:53:00
2:27 AM,42.8,33.8,70,29.83,-9999.0,Calm,Calm,-,0.00,Rain,Light Rain,0,2013-02-27 07:27:00
2:43 AM,42.8,33.8,70,29.82,-9999.0,Calm,Calm,-,0.00,,Overcast,0,2013-02-27 07:43:00
2:53 AM,42.1,34.0,73,29.82,-9999.0,Variable,4.6,-,0.00,,Overcast,0,2013-02-27 07:53:00
3:53 AM,42.1,33.1,70,29.83,-9999.0,Calm,Calm,-,N/A,,Overcast,0,2013-02-27 08:53:00
4:53 AM,42.1,32.0,67,29.84,-9999.0,Variable,3.5,-,N/A,,Overcast,0,2013-02-27 09:53:00
5:53 AM,42.1,30.9,65,29.85,-9999.0,Calm,Calm,-,N/A,,Overcast,0,2013-02-27 10:53:00
6:39 AM,41.0,32.0,70,29.86,10.0,Variable,3.5,-,N/A,,Overcast,0,2013-02-27 11:39:00
6:53 AM,41.0,32.0,70,29.86,10.0,Calm,Calm,-,N/A,,Overcast,0,2013-02-27 11:53:00
7:53 AM,41.0,30.9,67,29.87,10.0,Calm,Calm,-,N/A,,Overcast,0,2013-02-27 12:53:00
8:29 AM,42.8,30.2,61,29.90,10.0,Variable,3.5,-,N/A,,Overcast,0,2013-02-27 13:29:00
8:53 AM,42.1,30.9,65,29.90,10.0,Calm,Calm,-,N/A,,Overcast,0,2013-02-27 13:53:00
9:53 AM,44.1,30.9,60,29.91,10.0,Variable,4.6,-,N/A,,Mostly Cloudy,0,2013-02-27 14:53:00
10:53 AM,45.0,30.9,58,29.90,10.0,Variable,3.5,-,N/A,,Scattered Clouds,0,2013-02-27 15:53:00
11:53 AM,46.9,33.1,59,29.90,10.0,Variable,5.8,-,N/A,,Partly Cloudy,0,2013-02-27 16:53:00
12:53 PM,52.0,35.1,53,29.88,10.0,Variable,6.9,-,N/A,,Clear,0,2013-02-27 17:53:00
1:53 PM,53.1,35.1,50,29.85,10.0,Variable,3.5,-,N/A,,Clear,0,2013-02-27 18:53:00
2:53 PM,57.0,36.0,45,29.83,10.0,Variable,5.8,-,N/A,,Clear,0,2013-02-27 19:53:00
3:53 PM,57.9,33.1,39,29.81,10.0,Variable,6.9,-,N/A,,Clear,0,2013-02-27 20:53:00
4:53 PM,57.0,33.1,40,29.81,10.0,Variable,3.5,-,N/A,,Clear,0,2013-02-27 21:53:00
5:53 PM,55.9,33.1,42,29.82,10.0,Variable,5.8,-,N/A,,Clear,0,2013-02-27 22:53:00
6:53 PM,52.0,34.0,50,29.84,10.0,Calm,Calm,-,N/A,,Clear,0,2013-02-27 23:53:00
7:53 PM,52.0,35.1,53,29.85,10.0,Calm,Calm,-,N/A,,Overcast,0,2013-02-28 00:53:00
8:53 PM,52.0,34.0,50,29.85,10.0,Variable,3.5,-,N/A,,Overcast,0,2013-02-28 01:53:00
9:53 PM,51.1,34.0,52,29.85,10.0,Calm,Calm,-,N/A,,Overcast,0,2013-02-28 02:53:00
10:53 PM,48.0,36.0,63,29.88,10.0,Variable,3.5,-,N/A,,Scattered Clouds,0,2013-02-28 03:53:00
11:53 PM,46.9,35.1,63,29.88,10.0,Variable,4.6,-,N/A,,Mostly Cloudy,0,2013-02-28 04:53:00